Location: *
(45.0500°N, 12.0500°E)
Time: 13:19:13
(UTC+00:00)

ERBS - Pass Details

Date: 09 April 2020
Orbit: 410 x 426 km, 57.0° (Epoch: 25 May)

Event Time Altitude Azimuth Distance (km) Brightness Sun altitude
Rises 18:34:07 0° 316° (NW) 2,392 7.4 -8.3°
Reaches altitude 10° 18:36:38 10° 334° (NNW) 1,525 5.8 -8.7°
Maximum altitude 18:39:11 19° 23° (NNE) 1,074 4.3 -9.1°
Drops below altitude 10° 18:41:45 10° 72° (ENE) 1,523 4.6 -9.5°
Enters shadow 18:42:00 - 75° (ENE) 1,603 4.7 -9.6°
